FW2000 Weather Reports


Display with metric or nautical units.
time (UTC)temp
F
wind
direction
speed
MPH
gust
MPH
rain 1hr
in
rain 24hr
in
rain mn
in
humidity
%
barometer
mb
20260902071544 52 107 2.0 6.0 0.00 0.00 0.00 76 1016.7
20260902071046 52 99 2.0 4.0 0.00 0.00 0.00 76 1016.8
20260902070543 52 117 0.0 4.0 0.00 0.00 0.00 76 1016.8
20260902070042 52 157 0.0 5.0 0.00 0.00 0.00 76 1016.8
20260902065541 52 161 1.0 5.0 0.00 0.00 0.00 76 1016.7
20260902065040 52 162 1.0 4.0 0.00 0.00 0.00 76 1016.7
20260902064540 52 188 1.0 3.0 0.00 0.00 0.00 76 1016.7
20260902064040 53 246 0.0 3.0 0.00 0.00 0.00 75 1016.6
20260902063540 53 246 0.0 3.0 0.00 0.00 0.00 74 1016.8
20260902063053 53 246 0.0 0.0 0.00 0.00 0.00 74 1016.9
20260902062540 53 246 0.0 0.0 0.00 0.00 0.00 73 1016.8
20260902062039 53 246 0.0 1.0 0.00 0.00 0.00 73 1016.8
20260902061541 53 246 0.0 2.0 0.00 0.00 0.00 73 1016.7
20260902061040 53 246 0.0 2.0 0.00 0.00 0.00 73 1016.7
20260902060539 53 247 0.0 2.0 0.00 0.00 0.00 73 1016.9
20260902060039 53 247 0.0 3.0 0.00 0.00 0.00 73 1016.9
20260902055542 53 247 1.0 4.0 0.00 0.00 0.00 72 1016.8
20260902055038 54 242 2.0 6.0 0.00 0.00 0.00 72 1016.8
20260902054543 54 269 2.0 6.0 0.00 0.00 0.00 72 1016.8
20260902054037 54 270 3.0 8.0 0.00 0.00 0.00 71 1016.7
20260902053537 54 249 3.0 8.0 0.00 0.00 0.00 71 1016.8
20260902053037 55 223 4.0 7.0 0.00 0.00 0.00 69 1016.7
20260902052539 55 265 3.0 7.0 0.00 0.00 0.00 68 1016.7
20260902052036 55 242 3.0 7.0 0.00 0.00 0.00 67 1016.7
20260902051543 56 237 3.0 7.0 0.00 0.00 0.00 66 1016.7
20260902051038 56 245 3.0 6.0 0.00 0.00 0.00 64 1016.7
20260902050540 57 271 2.0 4.0 0.00 0.00 0.00 63 1016.7
20260902050055 57 259 2.0 4.0 0.00 0.00 0.00 63 1016.6
20260902045536 57 254 2.0 4.0 0.00 0.00 0.00 62 1016.7
20260902045036 57 188 2.0 4.0 0.00 0.00 0.00 62 1016.6
20260902044536 57 262 2.0 4.0 0.00 0.00 0.00 62 1016.7
20260902044035 57 256 1.0 4.0 0.00 0.00 0.00 61 1016.6
20260902043535 57 253 2.0 4.0 0.00 0.00 0.00 61 1016.7
20260902043043 58 257 2.0 6.0 0.00 0.00 0.00 60 1016.5
20260902042534 58 258 2.0 6.0 0.00 0.00 0.00 59 1016.5
20260902042034 58 269 2.0 6.0 0.00 0.00 0.00 58 1016.4
20260902041534 58 251 3.0 6.0 0.00 0.00 0.00 57 1016.5
20260902041036 58 269 3.0 6.0 0.00 0.00 0.00 56 1016.4
20260902040533 59 267 2.0 4.0 0.00 0.00 0.00 55 1016.1
20260902040035 59 271 2.0 4.0 0.00 0.00 0.00 54 1016.1
20260902035531 59 253 2.0 3.0 0.00 0.00 0.00 53 1016.0
20260902035030 59 271 2.0 6.0 0.00 0.00 0.00 52 1016.0
20260902034532 59 273 3.0 8.0 0.00 0.00 0.00 52 1015.8
20260902034029 60 273 4.0 8.0 0.00 0.00 0.00 51 1015.8
20260902033529 60 272 4.0 8.0 0.00 0.00 0.00 50 1015.7
20260902033030 60 279 3.0 6.0 0.00 0.00 0.00 50 1015.7
20260902032529 60 274 2.0 6.0 0.00 0.00 0.00 50 1015.7
20260902032028 60 270 2.0 6.0 0.00 0.00 0.00 50 1015.5
20260902031527 61 261 3.0 6.0 0.00 0.00 0.00 50 1015.3
20260902031031 61 261 1.0 4.0 0.00 0.00 0.00 50 1015.3
20260902030526 61 273 1.0 6.0 0.00 0.00 0.00 51 1015.2
20260902030025 61 263 2.0 6.0 0.00 0.00 0.00 50 1015.1
20260902025526 61 267 2.0 5.0 0.00 0.00 0.00 50 1015.1
20260902025026 62 271 2.0 5.0 0.00 0.00 0.00 50 1015.0
20260902024525 62 252 2.0 5.0 0.00 0.00 0.00 50 1014.9
20260902024024 62 263 2.0 7.0 0.00 0.00 0.00 50 1014.8
20260902023524 63 246 3.0 7.0 0.00 0.00 0.00 49 1014.9
20260902023024 63 235 1.0 6.0 0.00 0.00 0.00 49 1014.9
20260902022524 63 227 2.0 6.0 0.00 0.00 0.00 48 1014.8
20260902022024 64 267 2.0 6.0 0.00 0.00 0.00 48 1014.8
20260902021524 64 263 2.0 7.0 0.00 0.00 0.00 47 1014.7
20260902021024 65 274 1.0 5.0 0.00 0.00 0.00 47 1014.6
20260902020523 65 279 1.0 5.0 0.00 0.00 0.00 47 1014.5
20260902020024 65 279 1.0 5.0 0.00 0.00 0.00 46 1014.5
20260902015524 66 232 2.0 8.0 0.00 0.00 0.00 46 1014.5
20260902015024 66 236 2.0 8.0 0.00 0.00 0.00 45 1014.5
20260902014523 67 273 3.0 8.0 0.00 0.00 0.00 45 1014.5
20260902014022 67 270 3.0 9.0 0.00 0.00 0.00 44 1014.7
20260902013522 67 281 3.0 11.0 0.00 0.00 0.00 44 1014.6
20260902013022 68 276 4.0 9.0 0.00 0.00 0.00 44 1014.6
20260902012522 68 273 2.0 9.0 0.00 0.00 0.00 43 1014.6
20260902012021 68 269 4.0 8.0 0.00 0.00 0.00 43 1014.6
20260902011528 68 283 1.0 6.0 0.00 0.00 0.00 43 1014.6
20260902011024 68 227 2.0 11.0 0.00 0.00 0.00 43 1014.6
20260902010522 69 261 5.0 14.0 0.00 0.00 0.00 43 1014.6
20260902010022 69 277 3.0 14.0 0.00 0.00 0.00 43 1014.5
20260902005521 69 288 5.0 12.0 0.00 0.00 0.00 43 1014.5
20260902005020 69 271 7.0 12.0 0.00 0.00 0.00 42 1014.5
20260902004520 69 239 2.0 10.0 0.00 0.00 0.00 42 1014.5
20260902004019 69 256 2.0 7.0 0.00 0.00 0.00 43 1014.4
20260902003520 68 273 3.0 7.0 0.00 0.00 0.00 43 1014.4
20260902003026 68 275 2.0 9.0 0.00 0.00 0.00 43 1014.4
20260902002519 69 225 2.0 8.0 0.00 0.00 0.00 42 1014.4
20260902002022 69 264 3.0 11.0 0.00 0.00 0.00 42 1014.4
20260902001518 69 281 2.0 13.0 0.00 0.00 0.00 42 1014.3
20260902001019 70 263 3.0 13.0 0.00 0.00 0.00 42 1014.4
20260902000521 70 275 6.0 12.0 0.00 0.00 0.00 41 1014.3
20260902000018 71 280 7.0 13.0 0.00 0.00 0.00 41 1014.3
20260901235517 71 275 7.0 13.0 0.00 0.00 0.00 41 1014.4
20260901235018 71 283 6.0 11.0 0.00 0.00 0.00 40 1014.4
20260901234516 72 272 5.0 12.0 0.00 0.00 0.00 39 1014.4
20260901234016 73 285 4.0 14.0 0.00 0.00 0.00 38 1014.5
20260901233516 73 281 4.0 14.0 0.00 0.00 0.00 39 1014.4
20260901233015 73 284 3.0 10.0 0.00 0.00 0.00 39 1014.5
20260901232516 73 240 2.0 8.0 0.00 0.00 0.00 39 1014.5
20260901232015 73 207 4.0 12.0 0.00 0.00 0.00 39 1014.6
20260901231522 74 178 6.0 12.0 0.00 0.00 0.00 38 1014.6
20260901231014 73 259 3.0 9.0 0.00 0.00 0.00 39 1014.5
20260901230514 73 238 4.0 9.0 0.00 0.00 0.00 39 1014.6
20260901230116 74 223 2.0 9.0 0.00 0.00 0.00 39 1014.6
20260901225513 74 246 3.0 11.0 0.00 0.00 0.00 38 1014.6
20260901225013 74 219 3.0 11.0 0.00 0.00 0.00 38 1014.5
20260901224512 73 277 2.0 9.0 0.00 0.00 0.00 39 1014.5
20260901224012 73 215 4.0 9.0 0.00 0.00 0.00 38 1014.5
20260901223512 73 213 5.0 9.0 0.00 0.00 0.00 39 1014.4
20260901223012 74 302 2.0 10.0 0.00 0.00 0.00 39 1014.5
20260901222511 73 176 5.0 10.0 0.00 0.00 0.00 38 1014.6
20260901222014 75 202 6.0 10.0 0.00 0.00 0.00 37 1014.5
20260901221510 74 280 4.0 10.0 0.00 0.00 0.00 38 1014.5
20260901221013 74 241 1.0 11.0 0.00 0.00 0.00 38 1014.7
20260901220511 74 224 5.0 12.0 0.00 0.00 0.00 38 1014.6
20260901220009 74 229 4.0 11.0 0.00 0.00 0.00 38 1014.6
20260901215510 74 204 4.0 12.0 0.00 0.00 0.00 38 1014.6
20260901215012 74 220 5.0 11.0 0.00 0.00 0.00 38 1014.6
20260901214508 73 188 3.0 15.0 0.00 0.00 0.00 39 1014.6
20260901214008 73 187 8.0 15.0 0.00 0.00 0.00 38 1014.5
20260901213510 73 196 4.0 12.0 0.00 0.00 0.00 39 1014.6
20260901213007 74 233 4.0 14.0 0.00 0.00 0.00 37 1014.5
20260901212507 75 215 6.0 14.0 0.00 0.00 0.00 36 1014.7
20260901212007 75 268 4.0 14.0 0.00 0.00 0.00 36 1014.6
20260901211507 74 174 5.0 14.0 0.00 0.00 0.00 35 1014.6
20260901211007 73 227 6.0 16.0 0.00 0.00 0.00 37 1014.5
20260901210507 73 188 8.0 16.0 0.00 0.00 0.00 35 1014.5
20260901210006 73 223 4.0 11.0 0.00 0.00 0.00 35 1014.4
20260901205506 73 184 5.0 17.0 0.00 0.00 0.00 35 1014.4
20260901205005 74 232 8.0 17.0 0.00 0.00 0.00 34 1014.4
20260901204504 74 238 6.0 17.0 0.00 0.00 0.00 34 1014.3
20260901204004 73 216 9.0 17.0 0.00 0.00 0.00 35 1014.4
20260901203503 73 198 8.0 18.0 0.00 0.00 0.00 34 1014.4
20260901203004 73 250 10.0 16.0 0.00 0.00 0.00 34 1014.4
20260901202504 74 188 9.0 17.0 0.00 0.00 0.00 33 1014.4
20260901202002 74 205 7.0 17.0 0.00 0.00 0.00 33 1014.4
20260901201502 73 240 8.0 17.0 0.00 0.00 0.00 34 1014.5
20260901201005 74 167 9.0 17.0 0.00 0.00 0.00 33 1014.6
20260901200502 74 254 5.0 14.0 0.00 0.00 0.00 33 1014.7
20260901200008 74 221 6.0 14.0 0.00 0.00 0.00 32 1014.7
20260901195502 75 193 7.0 14.0 0.00 0.00 0.00 32 1014.8
20260901195000 75 249 2.0 7.0 0.00 0.00 0.00 31 1014.8
20260901194602 75 100 2.0 13.0 0.00 0.00 0.00 36 1014.9
20260901194100 74 57 1.0 13.0 0.00 0.00 0.00 36 1014.9
20260901193600 75 183 3.0 10.0 0.00 0.00 0.00 32 1014.8
20260901193059 75 184 3.0 8.0 0.00 0.00 0.00 32 1014.8
20260901192558 74 311 4.0 11.0 0.00 0.00 0.00 33 1014.9
20260901192057 74 241 4.0 11.0 0.00 0.00 0.00 32 1014.9
20260901191611 74 260 1.0 7.0 0.00 0.00 0.00 34 1015.0
20260901191054 73 302 2.0 13.0 0.00 0.00 0.00 38 1015.0
20260901190553 72 296 4.0 8.0 0.00 0.00 0.00 45 1015.0
20260901190054 72 5 0.0 8.0 0.00 0.00 0.00 45 1015.0
20260901185550 71 296 2.0 9.0 0.00 0.00 0.00 47 1015.1
20260901185049 71 292 1.0 8.0 0.00 0.00 0.00 47 1015.0
20260901184609 70 308 2.0 8.0 0.00 0.00 0.00 49 1015.0
20260901184047 69 298 1.0 7.0 0.00 0.00 0.00 49 1015.0
20260901183549 69 256 1.0 8.0 0.00 0.00 0.00 49 1015.1
20260901183051 69 298 1.0 6.0 0.00 0.00 0.00 49 1015.1
20260901182543 68 281 2.0 8.0 0.00 0.00 0.00 50 1015.0
20260901182042 68 275 3.0 9.0 0.00 0.00 0.00 51 1015.1
20260901181553 68 251 3.0 9.0 0.00 0.00 0.00 52 1015.2
20260901181040 67 275 4.0 8.0 0.00 0.00 0.00 54 1015.1
20260901180539 67 277 4.0 8.0 0.00 0.00 0.00 54 1015.0
20260901180039 67 274 2.0 10.0 0.00 0.00 0.00 54 1015.0
20260901175538 66 275 4.0 10.0 0.00 0.00 0.00 54 1015.0
20260901175036 66 263 2.0 5.0 0.00 0.00 0.00 55 1015.0
20260901174550 65 255 3.0 9.0 0.00 0.00 0.00 56 1014.9
20260901174034 65 277 2.0 7.0 0.00 0.00 0.00 58 1014.9
20260901173532 65 276 3.0 8.0 0.00 0.00 0.00 57 1014.9
20260901173033 64 290 3.0 8.0 0.00 0.00 0.00 58 1014.8
20260901172530 64 281 4.0 8.0 0.00 0.00 0.00 57 1014.8
20260901172029 64 293 2.0 9.0 0.00 0.00 0.00 58 1014.7
20260901171535 64 282 4.0 9.0 0.00 0.00 0.00 57 1014.7
20260901171028 65 275 3.0 9.0 0.00 0.00 0.00 56 1014.6
20260901170526 66 281 4.0 9.0 0.00 0.00 0.00 54 1014.5
20260901170025 67 283 2.0 7.0 0.00 0.00 0.00 53 1014.6
20260901165523 68 287 2.0 6.0 0.00 0.00 0.00 52 1014.4
20260901165021 68 290 3.0 6.0 0.00 0.00 0.00 51 1014.4
20260901164524 68 343 1.0 4.0 0.00 0.00 0.00 51 1014.3
20260901164018 67 16 1.0 4.0 0.00 0.00 0.00 51 1014.3
20260901163518 67 71 2.0 4.0 0.00 0.00 0.00 52 1014.3
20260901163018 66 32 0.0 6.0 0.00 0.00 0.00 52 1014.3
20260901162514 65 25 3.0 6.0 0.00 0.00 0.00 52 1014.2
20260901162015 65 29 2.0 5.0 0.00 0.00 0.00 53 1014.1
20260901161513 65 34 1.0 6.0 0.00 0.00 0.00 56 1014.1
20260901161013 64 42 2.0 4.0 0.00 0.00 0.00 56 1014.0
20260901160510 64 22 1.0 4.0 0.00 0.00 0.00 57 1013.9
20260901160016 64 69 2.0 4.0 0.00 0.00 0.00 56 1013.8
20260901155508 64 65 2.0 4.0 0.00 0.00 0.00 57 1013.9
20260901155007 63 55 1.0 4.0 0.00 0.00 0.00 57 1013.8
20260901154505 63 71 2.0 6.0 0.00 0.00 0.00 57 1013.6
20260901154005 62 74 1.0 7.0 0.00 0.00 0.00 58 1013.5
20260901153505 62 85 3.0 9.0 0.00 0.00 0.00 58 1013.5
20260901153003 61 86 3.0 9.0 0.00 0.00 0.00 59 1013.4
20260901152502 60 57 2.0 8.0 0.00 0.00 0.00 62 1013.3
20260901152003 60 67 3.0 6.0 0.00 0.00 0.00 63 1013.2
20260901151605 59 74 3.0 6.0 0.00 0.00 0.00 64 1013.2
20260901151100 58 67 2.0 6.0 0.00 0.00 0.00 65 1013.2
20260901150556 57 60 3.0 6.0 0.00 0.00 0.00 66 1013.0
20260901150056 57 64 2.0 6.0 0.00 0.00 0.00 69 1013.1
20260901145554 56 45 2.0 4.0 0.00 0.00 0.00 70 1013.1
20260901145052 55 40 2.0 4.0 0.00 0.00 0.00 70 1013.1
20260901144552 55 53 2.0 4.0 0.00 0.00 0.00 73 1013.1
20260901144053 54 44 1.0 3.0 0.00 0.00 0.00 73 1013.0
20260901143549 53 334 1.0 3.0 0.00 0.00 0.00 77 1013.0
20260901143102 52 241 0.0 0.0 0.00 0.00 0.00 80 1012.9
20260901142546 51 242 0.0 0.0 0.00 0.00 0.00 81 1012.9
20260901142044 51 242 0.0 0.0 0.00 0.00 0.00 81 1012.8
20260901141546 51 242 0.0 0.0 0.00 0.00 0.00 80 1012.9
20260901141044 51 242 0.0 0.0 0.00 0.00 0.00 79 1012.8
20260901140540 51 242 0.0 0.0 0.00 0.00 0.00 79 1012.9
20260901140042 51 242 0.0 0.0 0.00 0.00 0.00 78 1012.8
20260901135538 51 242 0.0 0.0 0.00 0.00 0.00 78 1012.8
20260901135037 52 242 0.0 1.0 0.00 0.00 0.00 77 1012.8
20260901134538 52 242 0.0 1.0 0.00 0.00 0.00 77 1012.7
20260901134034 52 242 0.0 2.0 0.00 0.00 0.00 75 1012.6
20260901133532 53 242 1.0 2.0 0.00 0.00 0.00 74 1012.6
20260901133032 53 241 0.0 3.0 0.00 0.00 0.00 72 1012.4
20260901132530 54 240 0.0 3.0 0.00 0.00 0.00 69 1012.3
20260901132029 55 245 0.0 4.0 0.00 0.00 0.00 66 1012.3
20260901131527 56 260 2.0 5.0 0.00 0.00 0.00 65 1012.4
20260901131025 57 283 3.0 6.0 0.00 0.00 0.00 59 1012.3
20260901130524 58 279 2.0 7.0 0.00 0.00 0.00 58 1012.4
20260901130028 59 271 1.0 4.0 0.00 0.00 0.00 56 1012.3
20260901125522 59 72 0.0 5.0 0.00 0.00 0.00 56 1012.2
20260901125022 59 73 1.0 5.0 0.00 0.00 0.00 56 1012.1
20260901124531 59 73 3.0 5.0 0.00 0.00 0.00 56 1011.9
20260901124021 59 84 3.0 6.0 0.00 0.00 0.00 56 1011.9
20260901123520 59 94 3.0 6.0 0.00 0.00 0.00 56 1011.9
20260901123037 59 88 3.0 6.0 0.00 0.00 0.00 56 1012.0
20260901122519 59 72 2.0 5.0 0.00 0.00 0.00 55 1012.0
20260901122018 59 65 2.0 4.0 0.00 0.00 0.00 55 1012.0
20260901121518 59 70 2.0 4.0 0.00 0.00 0.00 55 1012.0
20260901121018 59 82 2.0 4.0 0.00 0.00 0.00 55 1012.0
20260901120518 60 89 2.0 6.0 0.00 0.00 0.00 55 1012.0
20260901120027 60 90 2.0 6.0 0.00 0.00 0.00 54 1011.9
20260901115516 60 90 2.0 4.0 0.00 0.00 0.00 54 1011.8
20260901115016 60 84 2.0 4.0 0.00 0.00 0.00 54 1011.9
20260901114514 61 76 2.0 4.0 0.00 0.00 0.00 53 1011.9
20260901114014 61 76 1.0 3.0 0.00 0.00 0.00 53 1011.9
20260901113514 61 76 0.0 2.0 0.00 0.00 0.00 52 1011.9
20260901113014 61 75 0.0 1.0 0.00 0.00 0.00 52 1011.8
20260901112513 61 75 0.0 2.0 0.00 0.00 0.00 52 1011.8
20260901112014 61 75 0.0 4.0 0.00 0.00 0.00 52 1011.7
20260901111516 61 74 1.0 4.0 0.00 0.00 0.00 52 1011.6
20260901111013 61 74 2.0 5.0 0.00 0.00 0.00 52 1011.5
20260901110515 60 74 3.0 5.0 0.00 0.00 0.00 52 1011.4
20260901110013 60 79 3.0 8.0 0.00 0.00 0.00 53 1011.3
20260901105513 60 61 4.0 8.0 0.00 0.00 0.00 54 1011.3
20260901105011 60 73 3.0 5.0 0.00 0.00 0.00 54 1011.3
20260901104513 60 75 4.0 5.0 0.00 0.00 0.00 54 1011.4
20260901104011 60 77 3.0 5.0 0.00 0.00 0.00 54 1011.5
20260901103510 60 78 2.0 4.0 0.00 0.00 0.00 54 1011.5
20260901103009 60 78 1.0 4.0 0.00 0.00 0.00 54 1011.4
20260901102509 60 78 2.0 4.0 0.00 0.00 0.00 54 1011.4
20260901102009 60 78 1.0 3.0 0.00 0.00 0.00 54 1011.5
20260901101509 60 78 0.0 3.0 0.00 0.00 0.00 54 1011.4
20260901101008 60 78 1.0 4.0 0.00 0.00 0.00 54 1011.4
20260901100507 60 79 2.0 4.0 0.00 0.00 0.00 54 1011.4
20260901100007 60 80 1.0 3.0 0.00 0.00 0.00 54 1011.4
20260901095506 61 80 1.0 3.0 0.00 0.00 0.00 54 1011.5
20260901095005 61 75 1.0 3.0 0.00 0.00 0.00 54 1011.6
20260901094511 61 75 0.0 3.0 0.00 0.00 0.00 54 1011.5
20260901094004 61 75 1.0 4.0 0.00 0.00 0.00 54 1011.6
20260901093504 61 71 2.0 4.0 0.00 0.00 0.00 54 1011.4
20260901093003 61 71 1.0 4.0 0.00 0.00 0.00 54 1011.5
20260901092503 61 73 3.0 5.0 0.00 0.00 0.00 54 1011.5
20260901092004 61 73 2.0 6.0 0.00 0.00 0.00 54 1011.5
20260901091503 61 68 2.0 6.0 0.00 0.00 0.00 54 1011.6
20260901091002 61 72 3.0 9.0 0.00 0.00 0.00 54 1011.6
20260901090501 61 78 4.0 9.0 0.00 0.00 0.00 54 1011.6
20260901090005 61 76 2.0 6.0 0.00 0.00 0.00 54 1011.6
20260901085500 61 72 2.0 6.0 0.00 0.00 0.00 54 1011.6
20260901085059 61 91 3.0 6.0 0.00 0.00 0.00 54 1011.6
20260901084559 61 81 3.0 5.0 0.00 0.00 0.00 54 1011.9
20260901084101 61 74 3.0 5.0 0.00 0.00 0.00 55 1011.7
20260901083558 61 80 3.0 5.0 0.00 0.00 0.00 54 1011.7
20260901083058 61 86 2.0 4.0 0.00 0.00 0.00 54 1011.7
20260901082557 61 87 2.0 4.0 0.00 0.00 0.00 54 1011.8
20260901082056 62 81 3.0 4.0 0.00 0.00 0.00 53 1011.7
20260901081555 62 79 2.0 5.0 0.00 0.00 0.00 54 1011.8
20260901081054 62 70 2.0 5.0 0.00 0.00 0.00 53 1011.8
20260901080556 62 73 3.0 6.0 0.00 0.00 0.00 53 1011.9
20260901080053 63 62 1.0 3.0 0.00 0.00 0.00 56 1012.0
20260901075551 63 278 1.0 3.0 0.00 0.00 0.00 55 1011.9
20260901075050 63 277 1.0 3.0 0.00 0.00 0.00 55 1012.0
20260901074550 63 275 1.0 2.0 0.00 0.00 0.00 55 1012.0
20260901074050 63 274 0.0 1.0 0.00 0.00 0.00 55 1012.0
20260901073549 63 274 0.0 1.0 0.00 0.00 0.00 54 1012.0
20260901073050 63 274 0.0 2.0 0.00 0.00 0.00 53 1011.9
20260901072549 63 274 0.0 2.0 0.00 0.00 0.00 53 1011.9
20260901072047 63 274 0.0 2.0 0.00 0.00 0.00 52 1011.8